Simultaneous Nadir Overpasses (SNOs) Predictions

Prediction of SNOs between LANDSAT-8 and METOP-B Satellite Orbit:

Table of predicted SNOs for the next 14.0 days since TLE Epoch: 8/20/2025
Index Date (LANDSAT-8) Time (LANDSAT-8) Lat,Lon (LANDSAT-8) SZA (LANDSAT-8 ) Date (METOP-B) Time (METOP-B) Lat,Lon (METOP-B) SZA (METOP-B ) Distance(km) Time Diff (sec)
1 08/22/2025 13:42:00 -81.47,-159.06 107.48 08/22/2025 13:41:08 -81.47,-159.15 107.51 1.56 52
2 08/22/2025 14:31:26 81.48, 8.72 72.55 08/22/2025 14:31:48 81.47, 8.61 72.55 1.78 22
3 08/25/2025 09:16:14 -81.47, -92.61 106.50 08/25/2025 09:15:32 -81.47, -92.46 106.50 2.50 42
4 08/25/2025 10:05:40 81.47, 75.13 73.53 08/25/2025 10:06:12 81.47, 75.26 73.56 2.10 32
5 08/28/2025 04:50:29 -81.46, -26.30 105.52 08/28/2025 04:49:58 -81.47, -26.22 105.52 1.52 31
6 08/28/2025 05:39:55 81.47, 141.42 74.51 08/28/2025 05:40:38 81.47, 141.45 74.54 0.69 43
7 08/31/2025 00:24:43 -81.47, 40.29 104.48 08/31/2025 00:24:23 -81.47, 40.37 104.47 1.46 20
8 08/31/2025 01:14:09 81.47,-152.02 75.55 08/31/2025 01:15:03 81.47,-151.99 75.58 0.50 54
9 09/02/2025 19:58:57 -81.47, 106.74 103.43 09/02/2025 19:58:48 -81.47, 106.92 103.42 3.00 9



Historial Predications of SNOs between LANDSAT-8 and METOP-B
